Tracking 19717 objects as of 25-Jun-2019
HD Live streaming from Space Station
objects crossing your sky now

FENGYUN 1C DEB

Track FENGYUN 1C DEB now!
10-day predictions


NORAD ID: 30345
Int'l Code: 1999-025ABG
Perigee: 817.4 km
Apogee: 844.3 km
Inclination: 98.9 °
Period: 101.4 minutes
Semi major axis: 7201 km
RCS: 0.035 m2 (small)
Launch date: May 10, 1999
Source: People's Republic of China (PRC)
Launch site: Taiyaun Space Center, China (TSC)

Note: This is SATELLITE DEBRIS
aabbcc
Your satellite tracking list
Your tracking list is empty




NASA's NSSDC Master Catalog

Two Line Element Set (TLE):
1 30345U 99025ABG 19176.11242610  .00000611  00000-0  30540-3 0  9994
2 30345  98.9246 148.6918 0018652 228.9771 130.9793 14.20477347641035
Source of the keplerian elements: AFSPC